User: anonymous   Login
Location: McKinley Crossing
(64.8808°N, 149.6453°W)
Time: 17:17:46
(UTC+00:00)
Language:

AO-73 - Orbit

View from above orbital plane
View from above orbital plane
View from above satellite
View from above satellite

Ground track
Ground track

The orbit data is extracted from the following two-line orbital elements,

1 39444U 13066AE  21105.86222475  .00000394  00000-0  54291-4 0  9996
2 39444  97.5812  95.7965 0057697 358.6900   1.4154 14.82373347398168
Epoch (UTC): 15 April 2021 20:41:36
Eccentricity: 0.0057697
inclination: 97.5812°
perigee height: 581 km
apogee height: 662 km
right ascension of ascending node: 95.7965°
argument of perigee: 358.6900°
revolutions per day: 14.82373347
mean anomaly at epoch: 1.4154°
orbit number at epoch: 39816

The dashed part of the orbit path shows where the satellite is in the earth's shadow,  

DLR